GW0077 Weather Reports


time (UTC)temp
C
wind
direction
speed
KPH
gust
KPH
rain 1hr
cm
rain 24hr
cm
rain mn
cm
humidity
%
barometer
mb
20260505101726 16 298 6.4 16.1 0.00 0.00 0.00 77 1011.5
20260505101224 17 297 4.8 16.1 0.00 0.00 0.00 74 1011.6
20260505100737 17 265 6.4 11.3 0.00 0.00 0.00 72 1011.4
20260505100229 17 242 3.2 11.3 0.00 0.00 0.00 71 1011.3
20260505095716 17 242 1.6 9.7 0.00 0.00 0.00 70 1011.2
20260505095250 17 266 4.8 11.3 0.00 0.00 0.00 69 1011.2
20260505094722 17 300 4.8 11.3 0.00 0.00 0.00 69 1010.9
20260505094236 17 239 3.2 12.9 0.00 0.00 0.00 69 1010.5
20260505093728 17 236 4.8 12.9 0.00 0.00 0.00 69 1010.4
20260505093222 17 228 6.4 19.3 0.00 0.00 0.00 69 1010.4
20260505092719 17 248 6.4 20.9 0.00 0.00 0.00 68 1010.2
20260505092213 17 248 6.4 20.9 0.00 0.00 0.00 68 1010.0
20260505091727 17 206 8.0 12.9 0.00 0.00 0.00 68 1009.9
20260505091220 17 193 6.4 12.9 0.00 0.00 0.00 68 1009.9
20260505090734 17 239 6.4 16.1 0.00 0.00 0.00 68 1009.8
20260505090226 17 205 8.0 24.1 0.00 0.00 0.00 68 1009.7
20260505085753 17 200 8.0 24.1 0.00 0.00 0.00 68 1009.5
20260505085245 17 228 6.4 14.5 0.00 0.00 0.00 68 1009.5
20260505084718 17 176 4.8 17.7 0.00 0.00 0.00 68 1009.3
20260505084232 17 212 9.7 17.7 0.00 0.00 0.00 68 1009.3
20260505083730 17 194 6.4 17.7 0.00 0.00 0.00 68 1009.3
20260505083243 17 207 9.7 17.7 0.00 0.00 0.00 68 1009.2
20260505082716 17 210 9.7 17.7 0.00 0.00 0.00 68 1009.1
20260505082229 17 203 8.0 14.5 0.00 0.00 0.00 68 1009.1
20260505081723 17 198 8.0 16.1 0.00 0.00 0.00 68 1009.0
20260505081236 17 219 8.0 16.1 0.00 0.00 0.00 68 1009.0
20260505080729 17 190 6.4 11.3 0.00 0.00 0.00 68 1009.0
20260505080242 17 195 6.4 11.3 0.00 0.00 0.00 68 1009.0
20260505075728 17 232 4.8 17.7 0.00 0.00 0.00 69 1009.0
20260505075221 17 203 6.4 20.9 0.00 0.00 0.00 68 1009.0
20260505074719 17 211 9.7 20.9 0.00 0.00 0.00 68 1008.9
20260505074212 17 202 8.0 12.9 0.00 0.00 0.00 69 1008.9
20260505073725 17 196 8.0 14.5 0.00 0.00 0.00 69 1008.9
20260505073240 17 206 6.4 14.5 0.00 0.00 0.00 69 1008.8
20260505072732 17 188 8.0 14.5 0.00 0.00 0.00 68 1008.8
20260505072225 17 197 6.4 12.9 0.00 0.00 0.00 69 1008.8
20260505071718 17 197 8.0 14.5 0.00 0.00 0.00 68 1008.8
20260505071232 17 167 9.7 14.5 0.00 0.00 0.00 68 1008.8
20260505070730 17 203 6.4 14.5 0.00 0.00 0.00 68 1009.0
20260505070223 17 193 8.0 12.9 0.00 0.00 0.00 69 1009.1
20260505065729 17 191 6.4 11.3 0.00 0.00 0.00 69 1009.1
20260505065223 17 211 6.4 14.5 0.00 0.00 0.00 68 1009.1
20260505064717 17 221 8.0 14.5 0.00 0.00 0.00 68 1009.1
20260505064230 17 229 4.8 11.3 0.00 0.00 0.00 69 1009.0
20260505063724 17 204 6.4 14.5 0.00 0.00 0.00 68 1009.0
20260505063218 17 200 8.0 14.5 0.00 0.00 0.00 68 1009.0
20260505062715 17 171 8.0 16.1 0.00 0.00 0.00 68 1009.0
20260505062249 17 205 8.0 16.1 0.00 0.00 0.00 68 1009.0
20260505061721 17 209 8.0 14.5 0.00 0.00 0.00 68 1008.9
20260505061214 17 204 9.7 14.5 0.00 0.00 0.00 68 1008.8
20260505060728 17 204 8.0 16.1 0.00 0.00 0.00 68 1008.9
20260505060221 17 193 8.0 16.1 0.00 0.00 0.00 68 1008.7
20260505055728 17 206 8.0 16.1 0.00 0.00 0.00 69 1008.7
20260505055221 17 215 8.0 12.9 0.00 0.00 0.00 69 1008.7
20260505054719 17 200 8.0 14.5 0.00 0.00 0.00 69 1008.5
20260505054232 17 195 8.0 14.5 0.00 0.00 0.00 70 1008.6
20260505053726 17 192 6.4 11.3 0.00 0.00 0.00 70 1008.6
20260505053219 17 203 6.4 11.3 0.00 0.00 0.00 70 1008.7
20260505052713 17 199 6.4 11.3 0.00 0.00 0.00 71 1008.7
20260505052227 17 181 6.4 11.3 0.00 0.00 0.00 71 1008.7
20260505051720 17 207 4.8 9.7 0.00 0.00 0.00 71 1008.7
20260505051214 17 185 4.8 8.0 0.00 0.00 0.00 71 1008.8
20260505050732 17 181 4.8 8.0 0.00 0.00 0.00 71 1008.8
20260505050225 17 176 4.8 11.3 0.00 0.00 0.00 70 1008.9
20260505041731 18 186 4.8 12.9 0.00 0.00 0.00 70 1009.1
20260505041226 18 210 6.4 12.9 0.00 0.00 0.00 70 1009.2
20260505040719 18 219 4.8 8.0 0.00 0.00 0.00 70 1009.2
20260505040213 18 197 4.8 8.0 0.00 0.00 0.00 70 1009.4
20260505035719 18 199 4.8 11.3 0.00 0.00 0.00 70 1009.4
20260505035213 18 214 4.8 11.3 0.00 0.00 0.00 70 1009.3
20260505034727 18 205 3.2 8.0 0.00 0.00 0.00 70 1009.3
20260505034244 18 198 4.8 8.0 0.00 0.00 0.00 70 1009.3
20260505033716 18 210 3.2 8.0 0.00 0.00 0.00 70 1009.1
20260505033230 18 198 4.8 8.0 0.00 0.00 0.00 70 1009.1
20260505032724 18 214 3.2 8.0 0.00 0.00 0.00 70 1009.0
20260505032238 18 205 3.2 11.3 0.00 0.00 0.00 70 1009.0
20260505031750 18 204 4.8 11.3 0.00 0.00 0.00 69 1008.9
20260505031221 18 195 6.4 9.7 0.00 0.00 0.00 70 1008.9
20260505030715 18 190 6.4 9.7 0.00 0.00 0.00 69 1008.9
20260505030229 18 212 6.4 9.7 0.00 0.00 0.00 70 1008.9
20260505025720 18 206 4.8 8.0 0.00 0.00 0.00 70 1008.8
20260505025214 18 205 4.8 8.0 0.00 0.00 0.00 70 1008.8
20260505024727 18 198 4.8 8.0 0.00 0.00 0.00 70 1008.8
20260505024221 18 199 4.8 6.4 0.00 0.00 0.00 70 1008.7
20260505023735 18 198 3.2 6.4 0.00 0.00 0.00 69 1008.6
20260505023229 18 196 3.2 6.4 0.00 0.00 0.00 69 1008.6
20260505022722 19 196 4.8 6.4 0.00 0.00 0.00 68 1008.5
20260505022215 19 204 3.2 4.8 0.00 0.00 0.00 68 1008.4
20260505021748 19 201 3.2 6.4 0.00 0.00 0.00 67 1008.3
20260505021241 19 203 3.2 6.4 0.00 0.00 0.00 67 1008.2
20260505020738 20 195 3.2 8.0 0.00 0.00 0.00 67 1008.0
20260505020231 20 193 4.8 9.7 0.00 0.00 0.00 66 1007.8
20260505015719 20 198 4.8 9.7 0.00 0.00 0.00 66 1007.7
20260505015232 20 188 4.8 9.7 0.00 0.00 0.00 65 1007.6
20260505014744 20 205 6.4 9.7 0.00 0.00 0.00 65 1007.6
20260505014216 20 199 4.8 8.0 0.00 0.00 0.00 64 1007.6
20260505013729 20 196 4.8 6.4 0.00 0.00 0.00 64 1007.7
20260505013221 20 193 4.8 8.0 0.00 0.00 0.00 63 1007.7
20260505012714 20 191 4.8 9.7 0.00 0.00 0.00 63 1007.7
20260505012246 20 193 4.8 9.7 0.00 0.00 0.00 62 1007.6
20260505011722 21 203 3.2 6.4 0.00 0.00 0.00 62 1007.6
20260505011215 21 196 4.8 8.0 0.00 0.00 0.00 62 1007.4
20260505010728 21 207 4.8 11.3 0.00 0.00 0.00 61 1007.5
20260505010221 21 195 6.4 11.3 0.00 0.00 0.00 60 1007.5
20260505005727 21 187 6.4 9.7 0.00 0.00 0.00 60 1007.6
20260505005218 21 180 6.4 9.7 0.00 0.00 0.00 60 1007.7
20260505004730 21 198 6.4 9.7 0.00 0.00 0.00 59 1007.6
20260505004223 21 203 4.8 8.0 0.00 0.00 0.00 59 1007.6
20260505003720 22 200 4.8 9.7 0.00 0.00 0.00 59 1007.7
20260505003213 22 206 4.8 9.7 0.00 0.00 0.00 58 1007.6
20260505002726 22 210 6.4 9.7 0.00 0.00 0.00 57 1007.7
20260505002219 22 199 4.8 9.7 0.00 0.00 0.00 58 1007.8
20260505001732 22 210 4.8 12.9 0.00 0.00 0.00 57 1007.8
20260505001226 22 199 6.4 16.1 0.00 0.00 0.00 56 1007.8
20260505000719 22 203 8.0 16.1 0.00 0.00 0.00 57 1007.8
20260505000218 22 223 6.4 12.9 0.00 0.00 0.00 57 1007.8
20260504235722 23 200 8.0 17.7 0.00 0.00 0.00 56 1007.8
20260504235216 23 207 11.3 17.7 0.00 0.00 0.00 56 1007.7
20260504234729 23 223 8.0 17.7 0.00 0.00 0.00 57 1007.6
20260504234221 23 150 9.7 16.1 0.00 0.00 0.00 56 1007.6
20260504233713 23 208 8.0 20.9 0.00 0.00 0.00 56 1007.7
20260504233246 23 202 6.4 22.5 0.00 0.00 0.00 56 1007.9
20260504232718 23 187 8.0 22.5 0.00 0.00 0.00 55 1008.0
20260504232230 23 173 9.7 16.1 0.00 0.00 0.00 56 1008.0
20260504231727 23 204 8.0 17.7 0.00 0.00 0.00 56 1008.2
20260504231219 23 204 8.0 17.7 0.00 0.00 0.00 57 1008.3
20260504230731 23 281 8.0 19.3 0.00 0.00 0.00 56 1008.4
20260504230223 23 178 8.0 22.5 0.00 0.00 0.00 55 1008.5
20260504225728 24 189 12.9 22.5 0.00 0.00 0.00 54 1008.6
20260504225220 24 188 9.7 16.1 0.00 0.00 0.00 53 1008.6
20260504224732 24 204 4.8 20.9 0.00 0.00 0.00 54 1008.6
20260504224245 24 232 8.0 20.9 0.00 0.00 0.00 53 1008.6
20260504223716 23 212 11.3 20.9 0.00 0.00 0.00 52 1008.7
20260504223249 23 198 6.4 24.1 0.00 0.00 0.00 53 1008.7
20260504222725 24 236 9.7 22.5 0.00 0.00 0.00 52 1008.8
20260504222218 24 200 12.9 22.5 0.00 0.00 0.00 51 1008.8
20260504221730 24 227 12.9 22.5 0.00 0.00 0.00 51 1008.7
20260504221242 23 245 9.7 19.3 0.00 0.00 0.00 54 1008.9
20260504220714 24 226 11.3 24.1 0.00 0.00 0.00 53 1008.9
20260504220227 24 257 14.5 25.7 0.00 0.00 0.00 52 1008.8
20260504215752 24 220 12.9 20.9 0.00 0.00 0.00 54 1008.9
20260504215223 24 243 6.4 19.3 0.00 0.00 0.00 55 1008.9
20260504214716 23 203 8.0 19.3 0.00 0.00 0.00 55 1009.0
20260504214232 24 229 11.3 22.5 0.00 0.00 0.00 54 1009.0
20260504213725 24 205 12.9 22.5 0.00 0.00 0.00 52 1009.0
20260504213238 24 217 12.9 22.5 0.00 0.00 0.00 51 1009.0
20260504212750 24 263 8.0 22.5 0.00 0.00 0.00 52 1009.1
20260504212221 24 185 9.7 22.5 0.00 0.00 0.00 53 1009.2
20260504211753 24 257 11.3 29.0 0.00 0.00 0.00 52 1009.2
20260504211225 25 217 12.9 29.0 0.00 0.00 0.00 51 1009.2
20260504210718 25 222 11.3 20.9 0.00 0.00 0.00 51 1009.1
20260504210229 25 236 11.3 19.3 0.00 0.00 0.00 52 1009.1
20260504205735 25 221 6.4 24.1 0.00 0.00 0.00 52 1009.0
20260504205227 25 213 11.3 22.5 0.00 0.00 0.00 54 1009.0
20260504204723 25 221 11.3 22.5 0.00 0.00 0.00 53 1009.0
20260504204216 25 212 4.8 19.3 0.00 0.00 0.00 56 1009.1
20260504203728 25 228 9.7 19.3 0.00 0.00 0.00 53 1009.2
20260504203220 25 207 8.0 16.1 0.00 0.00 0.00 53 1009.1
20260504202732 25 200 6.4 20.9 0.00 0.00 0.00 54 1009.3
20260504202245 25 214 11.3 20.9 0.00 0.00 0.00 55 1009.2
20260504201716 25 229 8.0 22.5 0.00 0.00 0.00 56 1009.4
20260504201229 25 224 9.7 22.5 0.00 0.00 0.00 53 1009.4
20260504200726 25 269 4.8 22.5 0.00 0.00 0.00 57 1009.7
20260504200218 25 203 8.0 17.7 0.00 0.00 0.00 58 1009.8
20260504195725 24 259 9.7 16.1 0.00 0.00 0.00 57 1009.8
20260504195217 25 218 6.4 19.3 0.00 0.00 0.00 58 1009.9
20260504194729 25 237 9.7 19.3 0.00 0.00 0.00 56 1010.0
20260504194222 25 251 4.8 17.7 0.00 0.00 0.00 55 1010.0
20260504193734 25 236 8.0 22.5 0.00 0.00 0.00 57 1010.0
20260504193228 25 213 4.8 22.5 0.00 0.00 0.00 59 1010.1
20260504192721 24 240 8.0 22.5 0.00 0.00 0.00 58 1010.2
20260504192218 24 226 9.7 22.5 0.00 0.00 0.00 58 1010.2
20260504191731 24 229 9.7 19.3 0.00 0.00 0.00 60 1010.3
20260504191224 24 211 11.3 19.3 0.00 0.00 0.00 60 1010.4
20260504190717 23 228 6.4 20.9 0.00 0.00 0.00 61 1010.6
20260504190230 23 174 9.7 20.9 0.00 0.00 0.00 58 1010.6
20260504185715 23 219 6.4 27.4 0.00 0.00 0.00 59 1010.6
20260504185229 23 250 11.3 27.4 0.00 0.00 0.00 58 1010.7
20260504184722 24 210 11.3 19.3 0.00 0.00 0.00 56 1010.7
20260504184220 23 229 6.4 19.3 0.00 0.00 0.00 60 1010.6
20260504183714 24 258 8.0 19.3 0.00 0.00 0.00 56 1010.6
20260504183227 24 238 9.7 24.1 0.00 0.00 0.00 58 1010.5
20260504182719 23 237 9.7 24.1 0.00 0.00 0.00 59 1010.5
20260504182232 23 229 8.0 17.7 0.00 0.00 0.00 59 1010.4
20260504181745 23 201 9.7 20.9 0.00 0.00 0.00 62 1010.2
20260504181216 23 212 11.3 20.9 0.00 0.00 0.00 61 1010.3
20260504180729 23 248 9.7 24.1 0.00 0.00 0.00 60 1010.4
20260504180225 22 233 11.3 24.1 0.00 0.00 0.00 61 1010.4
20260504175750 22 193 14.5 22.5 0.00 0.00 0.00 62 1010.3
20260504175222 22 212 11.3 22.5 0.00 0.00 0.00 62 1010.4
20260504174715 22 241 9.7 17.7 0.00 0.00 0.00 64 1010.4
20260504174229 21 203 9.7 20.9 0.00 0.00 0.00 66 1010.4
20260504173721 21 217 12.9 22.5 0.00 0.00 0.00 64 1010.5
20260504173213 21 207 11.3 22.5 0.00 0.00 0.00 64 1010.5
20260504172746 21 219 14.5 22.5 0.00 0.00 0.00 65 1010.5
20260504172237 21 177 8.0 17.7 0.00 0.00 0.00 66 1010.7
20260504171729 21 199 9.7 17.7 0.00 0.00 0.00 66 1010.7
20260504171226 21 205 12.9 19.3 0.00 0.00 0.00 65 1010.7
20260504170719 20 223 8.0 20.9 0.00 0.00 0.00 67 1010.8
20260504170232 20 181 12.9 24.1 0.00 0.00 0.00 67 1010.7
20260504160219 17 263 8.0 19.3 0.00 0.00 0.00 72 1012.0
20260504150737 17 208 12.9 20.9 0.00 0.00 0.00 70 1011.3
20260504150233 17 246 9.7 24.1 0.00 0.00 0.00 70 1011.3
20260504141220 16 182 4.8 9.7 0.00 0.00 0.00 75 1010.8
20260504140713 16 186 4.8 9.7 0.00 0.00 0.00 76 1010.7
20260504140226 15 195 1.6 11.3 0.00 0.00 0.00 77 1011.0
20260504130717 12 205 3.2 14.5 0.00 0.00 0.00 79 1012.0
20260504130230 12 205 6.4 14.5 0.00 0.00 0.00 79 1012.1
20260504120239 11 198 6.4 11.3 0.00 0.00 0.00 81 1012.3
20260504110222 12 210 6.4 9.7 0.00 0.00 0.00 76 1012.3